This demonstration page uses our WeatherBlox Daily Observations layout. Learn more.

Left ArrowRight Arrow

Hourly Observations for May 13, 2015

Temp ( °F °C ) Dew Point ( °F °C ) Humidity (%) Winds ( mph kmh ) Pressure ( in mb ) Visibility ( mi km ) Precip ( " mm )
12:16 am 00:16 Clear 46 8 39 4 76 76 NW 3 6 30.27 1025 10 16.0934 N/A
12:36 am 00:36 Clear 46 8 37 3 71 71 NNW 5 7 30.27 1025 10 16.0934 N/A
12:56 am 00:56 Clear 46 8 39 4 76 76 N 6 9 30.27 1025 10 16.0934 N/A
1:16 am 01:16 Clear 46 8 39 4 76 76 NNW 5 7 30.27 1025 10 16.0934 N/A
1:36 am 01:36 Clear 46 8 37 3 71 71 Calm 30.27 1025 10 16.0934 N/A
1:56 am 01:56 Clear 45 7 45 7 100 100 Calm 30.27 1025 10 16.0934 N/A
2:16 am 02:16 Clear 45 7 45 7 100 100 Calm 30.27 1025 10 16.0934 N/A
2:36 am 02:36 Clear 45 7 45 7 100 100 WNW 3 6 30.3 1026 10 16.0934 N/A
2:56 am 02:56 Clear 43 6 43 6 100 100 WNW 5 7 30.3 1026 10 16.0934 N/A
3:16 am 03:16 Clear 45 7 N/A N/A NW 6 9 30.3 1026 10 16.0934 N/A
3:36 am 03:36 Clear 45 7 45 7 100 100 NW 8 13 30.3 1026 10 16.0934 N/A
3:56 am 03:56 Clear 45 7 43 6 93 93 NNW 8 13 30.3 1026 10 16.0934 N/A
4:16 am 04:16 Clear 46 8 43 6 87 87 NNW 9 15 30.3 1026 10 16.0934 N/A
4:36 am 04:36 Clear 45 7 41 5 87 87 N 9 15 30.3 1026 10 16.0934 N/A
4:56 am 04:56 Clear 45 7 43 6 93 93 NNW 8 13 30.33 1027 10 16.0934 N/A
5:16 am 05:16 Clear 43 6 43 6 100 100 N 7 11 30.33 1027 10 16.0934 N/A
5:36 am 05:36 Clear 43 6 43 6 100 100 N 8 13 30.33 1027 10 16.0934 N/A
5:56 am 05:56 Clear 43 6 N/A N/A N 7 11 30.33 1027 10 16.0934 N/A
6:16 am 06:16 Clear 43 6 43 6 100 100 N 7 11 30.36 1028 10 16.0934 N/A
6:36 am 06:36 Sunny 43 6 N/A N/A N 6 9 30.36 1028 10 16.0934 N/A
6:57 am 06:57 Sunny 43 6 N/A N/A N 6 9 30.36 1028 10 16.0934 N/A
7:16 am 07:16 Sunny 43 6 N/A N/A N 5 7 30.36 1028 10 16.0934 N/A
7:36 am 07:36 Sunny 46 8 39 4 76 76 N 5 7 30.36 1028 10 16.0934 N/A
7:56 am 07:56 Sunny 48 9 37 3 66 66 N 6 9 30.39 1029 10 16.0934 N/A
8:16 am 08:16 Sunny 48 9 36 2 62 62 N 7 11 30.39 1029 10 16.0934 N/A
8:36 am 08:36 Sunny 50 10 34 1 54 54 N 8 13 30.39 1029 10 16.0934 N/A
8:56 am 08:56 Sunny 50 10 32 0 50 50 N 12 19 30.39 1029 10 16.0934 N/A
9:16 am 09:16 Sunny 52 11 32 0 47 47 N 12 19 30.39 1029 10 16.0934 N/A
9:37 am 09:37 Sunny 54 12 30 -1 41 41 N 12 19 30.42 1030 10 16.0934 N/A
9:56 am 09:56 Sunny 54 12 30 -1 41 41 N 10 17 30.42 1030 10 16.0934 N/A
10:16 am 10:16 Sunny 55 13 30 -1 38 38 N 12 19 30.42 1030 10 16.0934 N/A
10:36 am 10:36 Sunny 55 13 27 -3 33 33 NNE 10 17 30.42 1030 10 16.0934 N/A
10:56 am 10:56 Sunny 55 13 27 -3 33 33 NNE 9 15 30.42 1030 10 16.0934 N/A
11:17 am 11:17 Sunny 57 14 28 -2 33 33 NNE 9 15 30.42 1030 10 16.0934 N/A
11:36 am 11:36 Sunny 57 14 27 -3 31 31 N 8 13 30.42 1030 10 16.0934 N/A
11:56 am 11:56 Sunny 59 15 27 -3 29 29 N 8 13 30.45 1031 10 16.0934 N/A
12:16 pm 12:16 Sunny 59 15 27 -3 29 29 NNE 8 13 30.42 1030 10 16.0934 N/A
12:36 pm 12:36 Sunny 61 16 27 -3 27 27 N 8 13 30.39 1029 10 16.0934 N/A
12:56 pm 12:56 Sunny 61 16 28 -2 29 29 NE 7 11 30.39 1029 10 16.0934 N/A
1:16 pm 13:16 Sunny 61 16 27 -3 27 27 N 7 11 30.39 1029 10 16.0934 N/A
1:36 pm 13:36 Sunny 61 16 27 -3 27 27 N 12 19 30.36 1028 10 16.0934 N/A
1:56 pm 13:56 Sunny 63 17 27 -3 25 25 N 10 17 30.36 1028 10 16.0934 N/A
2:16 pm 14:16 Sunny 63 17 28 -2 27 27 N 10 17 30.36 1028 10 16.0934 N/A
2:36 pm 14:36 Sunny 63 17 25 -4 24 24 N 8 13 30.36 1028 10 16.0934 N/A
2:56 pm 14:56 Sunny 63 17 25 -4 24 24 NW 5 7 30.36 1028 10 16.0934 N/A
3:16 pm 15:16 Sunny 64 18 25 -4 22 22 NNE 8 13 30.36 1028 10 16.0934 N/A
3:37 pm 15:37 Sunny 64 18 27 -3 24 24 N 10 17 30.33 1027 10 16.0934 N/A
3:56 pm 15:56 Sunny 64 18 25 -4 22 22 N 5 7 30.33 1027 10 16.0934 N/A
4:16 pm 16:16 Sunny 64 18 25 -4 22 22 NNW 8 13 30.33 1027 10 16.0934 N/A
4:36 pm 16:36 Sunny 64 18 28 -2 26 26 N 9 15 30.33 1027 10 16.0934 N/A
4:56 pm 16:56 Sunny 64 18 27 -3 24 24 N 7 11 30.33 1027 10 16.0934 N/A
5:16 pm 17:16 Sunny 66 19 27 -3 22 22 N 6 9 30.3 1026 10 16.0934 N/A
5:36 pm 17:36 Sunny 66 19 25 -4 21 21 N 8 13 30.3 1026 10 16.0934 N/A
5:56 pm 17:56 Sunny 64 18 25 -4 22 22 NNE 8 13 30.3 1026 10 16.0934 N/A
6:16 pm 18:16 Sunny 66 19 27 -3 22 22 NE 8 13 30.3 1026 10 16.0934 N/A
6:36 pm 18:36 Sunny 64 18 27 -3 24 24 NE 8 13 30.3 1026 10 16.0934 N/A
6:56 pm 18:56 Sunny 64 18 27 -3 24 24 E 8 13 30.3 1026 10 16.0934 N/A
7:16 pm 19:16 Sunny 63 17 27 -3 25 25 NE 7 11 30.3 1026 10 16.0934 N/A
7:36 pm 19:36 Sunny 61 16 30 -1 31 31 ENE 9 15 30.3 1026 10 16.0934 N/A
7:56 pm 19:56 Sunny 59 15 32 0 36 36 ENE 5 7 30.3 1026 10 16.0934 N/A
8:16 pm 20:16 Sunny 59 15 32 0 36 36 ENE 8 13 30.3 1026 10 16.0934 N/A
8:36 pm 20:36 Sunny 57 14 34 1 41 41 ENE 7 11 30.36 1028 10 16.0934 N/A
8:56 pm 20:56 Clear 55 13 32 0 41 41 NE 6 9 30.36 1028 10 16.0934 N/A
9:16 pm 21:16 Clear 55 13 32 0 41 41 NE 6 9 30.36 1028 10 16.0934 N/A
9:36 pm 21:36 Clear 54 12 34 1 47 47 NE 6 9 30.36 1028 10 16.0934 N/A
9:56 pm 21:56 Clear 54 12 34 1 47 47 NE 5 7 30.39 1029 10 16.0934 N/A
10:16 pm 22:16 Clear 52 11 34 1 50 50 NE 6 9 30.39 1029 10 16.0934 N/A
10:36 pm 22:36 Clear 52 11 34 1 50 50 NE 5 7 30.39 1029 10 16.0934 N/A
10:56 pm 22:56 Clear 52 11 34 1 50 50 NE 6 9 30.39 1029 10 16.0934 N/A
11:16 pm 23:16 Clear 50 10 36 2 58 58 ENE 8 13 30.39 1029 10 16.0934 N/A
11:36 pm 23:36 Clear 50 10 36 2 58 58 ENE 8 13 30.39 1029 10 16.0934 N/A
11:56 pm 23:56 Clear 50 10 37 3 62 62 ENE 8 13 30.39 1029 10 16.0934 N/A

Powered by AerisWeather